This is the latest recevied weather packets stored in our database for station/object OH2TI. If no packets are shown the sender has not sent any weather packets the latest 10 day(s).
| Time | Temp. | Humidity | Pressure | Rain* | Wind** | Luminosity | Snow |
|---|---|---|---|---|---|---|---|
| 1777038723 | 11.11° C | 33% | 1001.4 hPa | - | - | - | - |
| 1777037880 | 11.11° C | 34% | 1001.5 hPa | - | - | - | - |
| 1777037450 | 11.67° C | 33% | 1001.5 hPa | - | - | - | - |
| 1777036953 | 11.11° C | 34% | 1001.6 hPa | - | - | - | - |
| 1777036480 | 11.11° C | 34% | 1001.5 hPa | - | - | - | - |
| 1777035893 | 11.67° C | 33% | 1001.5 hPa | - | - | - | - |
| 1777035073 | 11.11° C | 34% | 1001.6 hPa | - | - | - | - |
| 1777034260 | 11.11° C | 34% | 1001.4 hPa | - | - | - | - |
| 1777033650 | 12.22° C | 33% | 1001.8 hPa | - | - | - | - |
| 1777032922 | 11.67° C | 34% | 1001.8 hPa | - | - | - | - |
| 1777032065 | 11.11° C | 33% | 1001.9 hPa | - | - | - | - |
| 1777031733 | 11.11° C | 35% | 1001.8 hPa | - | - | - | - |
| 1777030973 | 11.11° C | 35% | 1001.9 hPa | - | - | - | - |
| 1777030415 | 11.11° C | 38% | 1001.9 hPa | - | - | - | - |
| 1777029725 | 11.11° C | 39% | 1002.1 hPa | - | - | - | - |
| 1777029373 | 10.56° C | 38% | 1002.1 hPa | - | - | - | - |
| 1777028660 | 11.67° C | 37% | 1001.9 hPa | - | - | - | - |
| 1777027760 | 10.56° C | 38% | 1002.1 hPa | - | - | - | - |
| 1777027343 | 11.11° C | 36% | 1002 hPa | - | - | - | - |
| 1777026754 | 11.11° C | 37% | 1002 hPa | - | - | - | - |
| 1777025885 | 11.11° C | 37% | 1001.9 hPa | - | - | - | - |
| 1777025000 | 11.11° C | 37% | 1002 hPa | - | - | - | - |
| 1777024535 | 10.56° C | 37% | 1002.1 hPa | - | - | - | - |
| 1777023780 | 11.11° C | 38% | 1002.2 hPa | - | - | - | - |
| 1777023445 | 10.56° C | 38% | 1002.3 hPa | - | - | - | - |
* Rain since midnight (hover to see other rain measurements)
** Current wind speed in m/s (hover to see current wind gust speed)